Weather Roundup
Issued by NWS

Home | Current Version | Previous Version | Graphics & Text | Print | Product List | Glossary On
Versions: 1 2 3 4 5 6 7 8 9 10 11 12 13 14 15 16 17 18 19 20 21 22 23 24 25 26 27 28 29 30 31 32 33 34 35 36 37 38 39 40 41 42 43 44 45 46 47 48 49 50
000
NZUS93 KARX 011410
HRRWXR

CURRENT HOURLY OBSERVATIONS ACROSS
MUCH OF THE UPPER MISSISSIPPI VALLEY
NATIONAL WEATHER SERVICE LA CROSSE WI
900 AM CDT TUE SEP 01 2015


...SOUTHEAST MINNESOTA...


CITY           SKY/WX    TMP DP  RH WIND       PRES   REMARKS
ROCHESTER      MOSUNNY   70  70 100 S7        29.97F FOG
ROCHESTER/MAYO FAIR      71  71 100 SE5       29.96F
WINONA         MOSUNNY   73  72  94 SE7       29.95F FOG
AUSTIN         SUNNY     72  72 100 S6        29.96F FOG
ALBERT LEA     MOSUNNY   73  70  88 S5        29.95S
DODGE CENTER   SUNNY     72  70  94 S7        29.96F FOG
PRESTON        MOSUNNY   70  69  95 S9        29.99S FOG
OWATONNA       SUNNY     73  70  88 S5        29.95S
FARIBAULT      MOSUNNY   73  70  88 S6        29.94F FOG
$$

...ELSEWHERE IN MINNESOTA...


CITY           SKY/WX    TMP DP  RH WIND       PRES   REMARKS
MINNEAPOLIS    PTSUNNY   76  66  71 S6        29.92F
INTNL FALLS    MOSUNNY   61  59  93 CALM      29.90S
DULUTH         PTSUNNY   71  68  90 CALM      29.92S FOG
RED WING       MOSUNNY   73  72  94 SE6       29.92F
REDWOOD FALLS  CLOUDY    70  66  87 SE3       29.90S
MANKATO        PTSUNNY   70  64  83 S3        29.93S
WORTHINGTON    MOSUNNY   70  64  83 S8        29.93S
FAIRMONT       PTSUNNY   70  63  78 S7        29.93F
$$

...SOUTHWEST WISCONSIN...


CITY           SKY/WX    TMP DP  RH WIND       PRES   REMARKS
LA CROSSE      MOSUNNY   74  71  91 SE3       29.97S FOG
PRAIRIE DU CHI SUNNY     74  69  83 CALM      29.99S
BOSCOBEL       MOSUNNY   72  71  97 CALM      29.99F FOG
LONE ROCK      MOSUNNY   75  71  87 CALM      30.01S FOG
PLATTEVILLE    SUNNY     75  73  92 S6        30.02F
FORT MC COY    SUNNY     76  69  80 S5        29.98F
CAMP DOUGLAS   MOSUNNY   75  75 100 VRB2      29.98F
VIROQUA          N/A     74  74 100 S3        30.01S
WIS DELLS      SUNNY     76  70  81 S5        30.01S
$$

...ELSEWHERE IN WISCONSIN...


CITY           SKY/WX    TMP DP  RH WIND       PRES   REMARKS
MILWAUKEE      MOSUNNY   76  70  82 SW7       30.03S
MADISON        SUNNY     76  70  82 S7        30.02S
GREEN BAY      PTSUNNY   73  70  90 S6        29.99F FOG
EAU CLAIRE     PTSUNNY   72  70  93 S6        29.95S FOG
BLACK RVR FLS  FAIR      72  72 100 CALM      29.97S
MEDFORD        FOG       69  69 100 SW5       29.99F VSB<1/4
WAUSAU         CLOUDY    72  68  87 CALM      29.98S FOG
WIS RAPIDS     SUNNY     75  69  81 SW8       30.00S
MARSHFIELD     MOSUNNY   71  68  90 VRB3      29.99F FOG
RICE LAKE      MOSUNNY   71  70  96 S6        29.96F FOG
$$

...NORTHEAST IOWA...


CITY           SKY/WX    TMP DP  RH WIND       PRES   REMARKS
DECORAH        SUNNY     73  72  94 VRB6      29.98F
MASON CITY     SUNNY     70  69  97 S8        29.98S FOG
CHARLES CITY   SUNNY     72  72 100 S6        29.99R FOG
OELWEIN        SUNNY     73  72  94 S9        30.00F
$$

...ELSEWHERE IN IOWA...


CITY           SKY/WX    TMP DP  RH WIND       PRES   REMARKS
DES MOINES     SUNNY     76  69  79 S13       29.97F
IOWA CITY      SUNNY     75  70  84 S7        30.02F
FORT DODGE     SUNNY     72  66  83 SE7       29.96S
$$

...NORTHERN ILLINOIS...


CITY           SKY/WX    TMP DP  RH WIND       PRES   REMARKS
CHICAGO-OHARE  MOSUNNY   77  72  84 SW6       30.05S
CHICAGO-MIDWAY MOSUNNY   78  70  76 S8        30.06S
MOLINE         SUNNY     79  71  76 SW8       30.03F
ROCKFORD       PTSUNNY   74  70  87 S3        30.05F FOG
PEORIA         SUNNY     80  71  74 SW6       30.07S
$$

NOTE: "FAIR" INDICATES FEW OR NO CLOUDS BELOW 12,000 FEET WITH NO
SIGNIFICANT WEATHER AND/OR OBSTRUCTIONS TO VISIBILITY. WIND
SPEEDS ARE IN MILES-PER-HOUR.



USA.gov is the U.S. government's official web portal to all federal, state and local government web resources and services.